Regional Weather Roundup
Issued by NWS

Home | Current Version | Previous Version | Text Only | Print | Product List | Glossary On
Versions: 1 2 3 4 5 6 7 8 9 10 11 12 13 14 15 16 17 18 19 20 21 22 23 24 25 26 27 28 29 30 31 32 33 34 35 36 37 38 39 40 41 42 43 44 45 46 47 48 49 50
000
ASUS45 KPSR 010210
RWRAZ

ARIZONA HOURLY REGIONAL WEATHER ROUNDUP
NATIONAL WEATHER SERVICE PHOENIX AZ
700 PM MST FRI JUL 31 2015

NOTE: FAIR INDICATES FEW OR NO CLOUDS BELOW 12,000 FEET WITH NO
SIGNIFICANT WEATHER AND/OR OBSTRUCTIONS TO VISIBILITY.

AZZ001>003-036-010300-
NORTHWEST ARIZONA

CITY           SKY/WX    TMP DP  RH WIND       PRES   REMARKS
BULLHEAD CITY  MOCLDY   106  50  15 S8        29.80R HX 103
KINGMAN        CLOUDY    92  47  21 E13       30.07R
$$

AZZ004>008-015-016-018-010300-
NORTH CENTRAL ARIZONA

CITY           SKY/WX    TMP DP  RH WIND       PRES   REMARKS
GRAND CANYON   LGT RAIN  68  52  56 CALM      30.34S
WILLIAMS       CLOUDY    70  52  52 CALM      30.41S
PRESCOTT       CLOUDY    79  54  41 S3        30.21R
FLAGSTAFF      CLOUDY    67  58  72 W5        30.37R
PAYSON         LGT RAIN  72  63  73 CALM      30.25R
PAGE           CLOUDY    91  46  21 N7        30.08F
$$

AZZ009>014-017-010300-
NORTHEAST ARIZONA

CITY           SKY/WX    TMP DP  RH WIND       PRES   REMARKS
WINSLOW        CLOUDY    84  52  33 SW10      30.17R
SAINT JOHNS    CLOUDY    72  56  57 S15       30.24S
SHOW LOW       CLOUDY    64  57  77 S10       30.31F
$$

AZZ023-010300-
GREATER PHOENIX AREA

CITY           SKY/WX    TMP DP  RH WIND       PRES   REMARKS
PHOENIX        TSTM      83  70  64 SW16      29.94S
GLENDALE       TSTM      81  70  69 S10       29.96R
LUKE AFB       CLOUDY    79  72  78 SE16      29.94S
DEER VALLEY    CLOUDY    84  64  50 SW14      29.97S
SCOTTSDALE     CLOUDY    84  65  52 CALM      30.00R
MESA-FALCON    CLOUDY    84  64  51 S6        29.98R
MESA-GATEWAY   CLOUDY    82  66  57 W10       30.02R
CHANDLER       CLOUDY    81  68  65 SW21G35   29.99R
$$

AZZ027-028-010300-
SOUTHWEST MARICOPA COUNTY AND PINAL COUNTY

CITY           SKY/WX    TMP DP  RH WIND       PRES   REMARKS
CASA GRANDE    CLOUDY    77  68  73 NW10G20   29.99S
GILA BEND      CLOUDY    86  66  51 E24G31    29.93R THUNDER
$$

AZZ503-504-507>509-010300-
SOUTHEAST ARIZONA

CITY           SKY/WX    TMP DP  RH WIND       PRES   REMARKS
TUCSON         CLOUDY    84  61  45 SW6       30.07R
DAVIS-MONTHAN  CLOUDY    79  68  69 SE5       30.07R
RYAN FIELD     PTCLDY    82  66  57 W3        30.05R
NOGALES        CLOUDY    73  67  81 CALM      30.14R
SIERRA VISTA   LGT RAIN  72  63  73 W16       30.19R
DOUGLAS          N/A    N/A N/A N/A MISG      30.12R THUNDER
SAFFORD        PTCLDY    85  59  41 NW20G26   30.05R THUNDER
$$

AZZ020-021-025-026-031-010300-
SOUTHWEST ARIZONA

CITY           SKY/WX    TMP DP  RH WIND       PRES   REMARKS
YUMA           CLOUDY   106  54  17 W6        29.78S HX 104
$$

CAZ031-033-041-043-047-048-061-010300-
SOUTHERN CALIFORNIA

CITY           SKY/WX    TMP DP  RH WIND       PRES   REMARKS
DOWNTOWN L.A.  CLEAR     76  65  68 W7        29.93S
L.A. AIRPORT   MOSUNNY   72  66  81 W15       29.94F
SAN DIEGO      MOCLDY    73  63  70 W7        29.97R
BURBANK        SUNNY     84  61  45 S6        29.93S
ONTARIO        MOCLDY    89  63  41 W12       29.93R
RIVERSIDE      MOCLDY    87  63  44 W9G18     29.93R
PALM SPRINGS   MOCLDY   103  49  16 NW15G23   29.82R
EL CENTRO NAS  MOCLDY   106  38   9 W14       29.78R HX 100
IMPERIAL       MOCLDY   102  45  14 W7        29.76R
BLYTHE         CLOUDY   106  59  21 S9        29.78R HX 106
NEEDLES        CLOUDY   106  49  14 SW12      29.82R HX 103
$$

NVZ020-UTZ003-010300-
SOUTHERN NEVADA-UTAH

CITY           SKY/WX    TMP DP  RH WIND       PRES   REMARKS
LAS VEGAS      CLOUDY    95  54  25 S12       29.88S
SALT LAKE CITY PTCLDY    91  23   8 CALM      30.09F
$$

NMZ009-TXZ055-010300-
NEW MEXICO-WEST TEXAS

CITY           SKY/WX    TMP DP  RH WIND       PRES   REMARKS
ALBUQUERQUE    CLOUDY    77  55  46 E13       30.26F
EL PASO        PTCLDY    90  52  27 SE5       30.07R
$$


........................KEY........................
SKY/WX - SKY CONDITION/WEATHER
TMP    - TEMPERATURE IN FAHRENHEIT
DP     - DEW POINT IN FAHRENHEIT
RH     - RELATIVE HUMIDITY IN PERCENT
WIND   - DIRECTION AND SPEED IN MILES PER HOUR (MPH)
VRB    - VARIABLE WIND DIRECTION
PRES   - MEAN SEA LEVEL PRESSURE IN INCHES OF MERCURY
         F - FALLING PRESSURE   R - RISING PRESSURE
         S - STEADY PRESSURE
VSB    - VISIBILITY IN MILES
HX     - HEAT INDEX IN FAHRENHEIT
WCI    - WIND CHILL INDEX IN FAHRENHEIT
TC     - TEMPERATURE IN CELSIUS WHICH IS ALSO KNOWN AS
         TEMPERATURE IN CENTIGRADE
AFB    - AIR FORCE BASE
         LUKE AFB IS LUKE AIR FORCE BASE
         DAVIS-MONTHAN IS DAVIS-MONTHAN AIR FORCE BASE
NAS    - NAVAL AIR STATION
         EL CENTRO NAS IS EL CENTRO NAVAL AIR STATION
N/A    - NOT AVAILABLE



USA.gov is the U.S. government's official web portal to all federal, state and local government web resources and services.